Location: Hamburg
(53.5500°N, 10.0000°E)
Time: 02:12:13
(UTC+02:00)

A-11 Canister half - All Passes

Search period start: 17 October 2017 00:00
Search period end: 27 October 2017 00:00
Orbit: 1527 x 1682 km, 47.3° (Epoch: 16 October)

Date Brightness Start Highest point End Pass type
(mag) Time Alt. Az. Time Alt. Az. Time Alt. Az.
17 Oct - 02:03:20 10° SE 02:06:06 12° SE 02:08:51 10° ESE visible
17 Oct - 04:00:36 10° SSW 04:08:43 35° SE 04:16:47 10° E visible
17 Oct - 06:03:26 10° WSW 06:12:28 57° S 06:21:31 10° E visible
17 Oct - 08:07:41 10° W 08:16:41 56° SSW 08:25:44 10° ESE daylight
17 Oct - 10:12:27 10° W 10:20:22 33° SW 10:28:23 10° SSE daylight
17 Oct - 12:22:19 10° WSW 12:22:54 10° WSW 12:23:29 10° SW daylight
18 Oct - 01:42:44 10° SE 01:44:38 11° SE 01:46:32 10° ESE visible
18 Oct - 03:39:10 10° SSW 03:47:13 34° SE 03:55:10 10° E visible
18 Oct - 05:41:53 10° WSW 05:50:56 56° SSE 05:59:56 10° E visible
18 Oct - 07:46:08 10° W 07:55:08 57° SSW 08:04:11 10° ESE daylight
18 Oct - 09:50:52 10° W 09:58:51 34° SW 10:06:57 10° SSE daylight
18 Oct - 11:59:21 10° WSW 12:01:27 11° SW 12:03:34 10° SW daylight
19 Oct - 03:17:43 10° SSW 03:25:42 32° SE 03:33:35 10° E visible
19 Oct - 05:20:21 10° WSW 05:29:23 56° SSE 05:38:22 10° E visible
19 Oct - 07:24:33 10° W 07:33:35 57° S 07:42:38 10° ESE daylight
19 Oct - 09:29:16 10° W 09:37:20 35° SW 09:45:30 10° SSE daylight
19 Oct - 11:37:05 10° WSW 11:39:58 12° SW 11:42:53 10° SW daylight
20 Oct - 02:56:18 10° SSW 03:04:11 31° SE 03:11:59 10° E visible
20 Oct - 04:58:48 10° WSW 05:07:50 55° SSE 05:16:48 10° E visible
20 Oct - 07:02:59 10° W 07:12:02 58° S 07:21:06 10° ESE visible
20 Oct - 09:07:41 10° W 09:15:50 36° SSW 09:24:03 10° SSE daylight
20 Oct - 11:15:02 10° WSW 11:18:31 13° SW 11:22:02 10° SSW daylight
21 Oct - 02:34:53 10° SSW 02:42:41 30° SE 02:50:22 10° E visible
21 Oct - 04:37:16 10° WSW 04:46:17 54° SSE 04:55:14 10° E visible
21 Oct - 06:41:24 10° W 06:50:28 58° S 06:59:32 10° ESE visible
21 Oct - 08:46:05 10° W 08:54:18 37° SSW 09:02:36 10° SSE daylight
21 Oct - 10:53:05 10° W 10:57:03 13° SW 11:01:03 10° SSW daylight
22 Oct - 02:13:28 10° SSW 02:21:10 29° SE 02:28:46 10° E visible
22 Oct - 04:15:43 10° WSW 04:24:44 54° SSE 04:33:39 10° E visible
22 Oct - 06:19:51 10° W 06:28:55 59° S 06:37:59 10° ESE visible
22 Oct - 08:24:29 10° W 08:32:47 38° SSW 08:41:09 10° SSE daylight
22 Oct - 10:31:12 10° W 10:35:35 14° SW 10:40:00 10° SSW daylight
23 Oct - 01:52:04 10° SSW 01:59:40 28° SE 02:07:09 10° E visible
23 Oct - 03:54:11 10° SW 04:03:12 53° SSE 04:12:06 10° E visible
23 Oct - 05:58:16 10° W 06:07:22 59° S 06:16:26 10° ESE visible
23 Oct - 08:02:54 10° W 08:11:16 39° SSW 08:19:40 10° SE daylight
23 Oct - 10:09:23 10° W 10:14:07 15° SW 10:18:54 10° SSW daylight
24 Oct - 01:30:41 10° SSW 01:38:10 27° SE 01:45:32 10° E visible
24 Oct - 03:32:39 10° SW 03:41:39 52° SSE 03:50:32 10° E visible
24 Oct - 05:36:42 10° W 05:45:49 60° S 05:54:53 10° ESE visible
24 Oct - 07:41:19 10° W 07:49:45 40° SSW 07:58:12 10° SE daylight
24 Oct - 09:47:34 10° W 09:52:39 16° SW 09:57:45 10° SSW daylight
25 Oct - 01:09:18 10° S 01:16:40 26° SE 01:23:54 10° E visible
25 Oct - 03:11:07 10° SW 03:20:06 51° SSE 03:28:57 10° E visible
25 Oct - 05:15:07 10° W 05:24:16 60° S 05:33:20 10° ESE visible
25 Oct - 07:19:44 10° W 07:28:14 42° SSW 07:36:44 10° SE visible
25 Oct - 09:25:49 10° W 09:31:10 17° SW 09:36:35 10° SSW daylight
26 Oct - 00:47:56 10° S 00:55:10 25° SE 01:02:16 10° E visible
26 Oct - 02:49:34 10° SW 02:58:34 50° SSE 03:07:23 10° E visible
26 Oct - 04:53:33 10° W 05:02:43 60° S 05:11:47 10° ESE visible
26 Oct - 06:58:08 10° W 07:06:42 43° SSW 07:15:15 10° SE visible
26 Oct - 09:04:03 10° W 09:09:42 18° SW 09:15:22 10° S daylight
